Sarasota Bradenton International Airport
KSRQ : now visible

Airfield :











YOU CAN JOIN US ON...

 
LOGIN :

Register | Disclaimer

   EN    FR    IT 

 









Legend :    VFR   Marginal VFR   IFR   Intensive IFR   Very Intensive IFR
Visi :
Ceiling :
>= 8 km
>= 3000ft
5 to 8 km
1000 to 3000 ft
1500m to 5 km
500 to 1000 ft
800 to 1500m
200 to 500 ft
< 800m
< 200 ft
Symbols :   Thunderstorms  Fog  Heavy snow  Heavy precipitations  Wind > 20 kt







- Airport Elevation : 30 ft
- IATA code : SRQ


KSRQ - Sarasota Bradenton International

CURRENT METAR :
  • 270253Z 09005KT 10SM SCT049 BKN065 28/23 A3008 RMK AO2 SLP186 T02830233 53015

EXPIRED METARs :
  • 270153Z 34004KT 10SM SCT060 27/23 A3006 RMK AO2 SLP180 T02720233
  • 270053Z 32007KT 10SM BKN065 28/23 A3006 RMK AO2 SLP177 T02780233

TAF KSRQ
Valid from the 27 at 00:00 until the 28 at 00:00 UTC


262320Z 2700/2724 31010KT P6SM FEW060
FM270200 10005KT P6SM SKC
FM271500 24006KT P6SM FEW030
FM271900 30010KT P6SM SCT060
KZMA FIR / North America



MET'MAP, your aeronautical weather chart ! - Copyright ORBIFLY December 2007 - Disclaimer

ORBIFLY MET'MAP TEAM :

Programming & Development : Alexandra Zaïnal
Concept & Development : Baudouin d'Aumeries
Co-Development & Prog : Marc-Olivier Méhu
Technical & hardware support : Manuel Goepfert

Contact : metmap@orbifly.com




SOURCES & CREDITS :

   NOAA       Earth
Advisory